[[{"header":{"parameterUnit":"m.s-1","parameterCategory":1,"la1":30.2991,"la2":30.254,"lo1":-89.0895,"lo2":-89.0444,"dy":0.0017,"dx":0.0017,"nx":28,"ny":28,"refTime":"2023-08-09T09:00:00:Z","depth":0,"parameterNumber":2,"parameterNumberName":"U-component_of_WINDS"},"data":[0,0,0,0,0,0,0,0,0,0,0,0,0,0,0,0,0,0,0,0,0,0,0,0,0,0,0,0,0,0,0,0,0,0,0,0,0,0,0,0,0,0,0,0,0,0,0,0,0,0,0,0,0,0,0,0,0,0,5.3527,5.3527,0,5.3542,5.3542,5.3543,5.344,5.3437,5.3434,5.3432,5.3447,5.345,5.3453,0,0,0,0,0,0,0,0,0,0,0,0,0,5.3405,5.3408,5.3527,5.3527,5.3528,5.3542,5.3542,5.3543,5.3441,5.3437,5.3434,5.343,5.3446,5.3449,5.3453,0,0,0,0,0,0,0,0,0,0,0,0,0,5.3443,5.3409,5.3527,5.3478,5.3474,5.3542,5.3542,5.3543,5.3441,5.3437,5.3433,5.3429,5.3445,5.3449,5.3454,5.3569,0,0,5.3468,5.347,0,0,0,0,0,0,0,0,5.3441,5.3448,5.3485,5.3482,5.3477,5.3485,5.3505,5.3551,5.3443,5.3454,5.3432,5.3427,5.3463,5.3466,5.3478,5.357,5.357,5.3468,5.3471,5.3473,5.3474,0,0,0,0,0,0,0,5.3439,5.3447,5.3533,5.3486,5.3481,5.3454,5.3455,5.3513,5.3483,5.3453,5.3445,5.3448,5.346,5.3474,5.3478,5.357,5.3468,5.3472,5.3475,5.3477,5.3749,5.3753,0,0,0,0,0,0,5.3443,5.3445,5.3533,5.3533,5.3448,5.346,5.3461,5.3487,5.3482,5.3477,5.3452,5.3444,5.3468,5.3472,5.3478,5.3607,5.3473,5.3477,5.348,5.3745,5.375,5.3755,0,0,0,0,0,0,5.3441,5.3452,5.3532,5.3487,5.3495,5.3467,5.3497,5.3489,5.3503,5.3481,5.3475,5.3472,5.3465,5.3471,5.3545,5.3606,5.3479,5.3484,5.374,5.3746,5.3753,5.3869,0,0,0,0,0,0,5.3438,5.3452,5.3497,5.3489,5.3498,5.3601,5.3501,5.3493,5.3512,5.3501,5.3498,5.3494,5.3462,5.3539,5.355,5.361,5.3487,5.3734,5.3743,5.375,5.386,5.3879,5.3896,0,0,0,0,0,5.3434,5.3531,5.35,5.3511,5.3554,5.3605,5.361,5.3571,5.3517,5.356,5.3545,5.3494,5.3598,5.3547,5.3559,5.3621,5.373,5.374,5.375,5.3852,5.3875,5.3895,0,0,0,0,0,0,5.3548,5.3529,5.3494,5.3592,5.3601,5.3588,5.3642,5.3599,5.3623,5.3612,5.3562,5.3563,5.3643,5.364,5.3584,5.3729,5.3654,5.3667,5.3728,5.375,5.3768,5.3765,5.3491,0,0,0,0,0,5.3585,5.3628,5.3609,5.3697,5.3702,5.3672,5.3693,5.3661,5.3668,5.3672,5.3662,5.367,5.3703,5.3727,5.3758,5.3859,5.3854,5.3908,5.3926,5.394,5.3951,5.3998,5.402,5.3788,5.3788,5.3788,0,0,5.3661,5.3655,5.3686,5.3719,5.3722,5.3766,5.3676,5.3728,5.3758,5.3679,5.3747,5.374,5.3745,5.3832,5.387,5.3832,5.4014,5.3953,5.3965,5.3968,5.401,5.4032,5.4052,5.3795,5.3793,5.3792,0,0,5.382,5.3823,5.3893,5.3896,5.3901,5.3879,5.3896,5.3888,5.388,5.3947,5.3886,5.3922,5.3983,5.3987,5.3998,5.4152,5.4104,5.4164,5.4256,5.4303,5.4321,5.4337,5.4386,5.4406,5.4175,5.4176,5.4176,0,5.3914,5.3978,5.3935,5.3988,5.4002,5.3931,5.3999,5.4005,5.402,5.403,5.3987,5.4058,5.4057,5.414,5.4177,5.419,5.4204,5.4163,5.4322,5.4337,5.4351,5.4398,5.4418,5.4182,5.4182,5.4181,5.418,0,5.4089,5.4135,5.4191,5.4203,5.4224,5.4286,5.4248,5.4274,5.424,5.4222,5.4287,5.4283,5.4308,5.4327,5.4296,5.4404,5.4379,5.4331,5.4254,5.4381,5.4424,5.4442,5.4192,5.419,5.4188,5.4186,0,0,5.4323,5.4307,5.4328,5.433,5.4328,5.4361,5.4417,5.444,5.446,5.4473,5.4515,5.4565,5.4518,5.453,5.4498,5.4539,5.4654,5.4484,5.4483,5.4511,5.4766,5.48,5.4822,5.4623,5.4627,5.4629,5.4764,0,5.4474,5.4568,5.4528,5.4625,5.4662,5.4593,5.464,5.4643,5.4626,5.4654,5.4636,5.467,5.4608,5.4613,5.4651,5.4633,5.4704,5.4623,5.4658,5.466,5.4655,5.4845,5.4882,5.501,5.4781,5.4784,5.4786,0,5.4664,5.468,5.478,5.4764,5.4778,5.4822,5.4836,5.4866,5.4865,5.4849,5.486,5.4817,5.4867,5.4793,5.4858,5.4804,5.4816,5.4809,5.4812,5.4811,5.4728,5.4844,5.505,5.5068,5.4813,5.4811,5.4809,0,5.4817,5.4864,5.4928,5.4933,5.4918,5.4949,5.4944,5.4939,5.4953,5.4966,5.4974,5.4994,5.5004,5.5018,5.498,5.4931,5.5049,5.4973,5.5034,5.5035,5.506,5.5058,5.5266,5.5076,5.5075,5.5075,5.5075,0,5.4988,5.505,5.4995,5.5034,5.51,5.5053,5.5119,5.5107,5.5102,5.5135,5.5078,5.511,5.506,5.5086,5.5057,5.5112,5.5119,5.5105,5.5095,5.5107,5.5108,5.5112,5.51,5.508,5.5079,5.5078,5.5077,0,5.517,5.5136,5.52,5.5179,5.5174,5.5224,5.5204,5.5238,5.5216,5.5258,5.5265,5.523,5.5258,5.5222,5.5247,5.5227,5.5301,5.5281,5.5301,5.5293,5.5354,5.5347,5.5568,5.5592,5.5391,5.5393,5.5395,0,5.5279,5.5324,5.5307,5.5324,5.5321,5.5351,5.5364,5.5318,5.5333,5.5332,5.5365,5.5387,5.5402,5.5449,5.5425,5.5442,5.5419,5.5495,5.5421,5.5429,5.5413,5.5409,5.5411,5.5509,5.5511,5.5513,5.5515,0,5.5474,5.5453,5.5474,5.5488,5.5504,5.5513,5.5518,5.5535,5.5486,5.5506,5.5532,5.5543,5.5566,5.5587,5.5597,5.559,5.5543,5.5539,5.5552,5.5563,5.557,5.5561,5.5337,5.5533,5.5531,5.553,5.5529,5.5528,5.5619,5.5654,5.5644,5.5668,5.5665,5.5669,5.5698,5.5677,5.5698,5.5712,5.5683,5.5715,5.5708,5.5716,5.5714,5.5736,5.5703,5.5725,5.5729,5.5734,5.5741,5.557,5.5739,5.5738,5.5738,5.5737,5.5737,0,5.5807,5.5796,5.5818,5.5823,5.5841,5.5794,5.5795,5.5812,5.5841,5.5838,5.5852,5.5879,5.5898,5.5874,5.5888,5.591,5.5888,5.5915,5.5911,5.5908,5.5773,5.5757,5.5932,5.5932,5.5932,5.5932,5.5932,5.5932,5.5906,5.5959,5.5937,5.5987,5.5976,5.6005,5.6009,5.6011,5.6007,5.6039,5.6054,5.6038,5.6025,5.6036,5.605,5.6042,5.6047,5.6081,5.6065,5.5938,5.5919,5.5901,5.5885,5.6084,5.6084,5.6197,5.6198,5.6199]},{"header":{"parameterUnit":"m.s-1","parameterCategory":1,"la1":30.2991,"la2":30.254,"lo1":-89.0895,"lo2":-89.0444,"dy":0.0017,"dx":0.0017,"nx":28,"ny":28,"refTime":"2023-08-09T09:00:00:Z","depth":0,"parameterNumber":3,"parameterNumberName":"V-component_of_WINDS"},"data":[0,0,0,0,0,0,0,0,0,0,0,0,0,0,0,0,0,0,0,0,0,0,0,0,0,0,0,0,0,0,0,0,0,0,0,0,0,0,0,0,0,0,0,0,0,0,0,0,0,0,0,0,0,0,0,0,0,0,2.3339,2.334,0,2.3374,2.3374,2.3375,2.3326,2.3324,2.3322,2.3321,2.3361,2.3364,2.3366,0,0,0,0,0,0,0,0,0,0,0,0,0,2.3234,2.3236,2.3339,2.334,2.334,2.3374,2.3374,2.3375,2.3326,2.3324,2.3322,2.332,2.336,2.3363,2.3367,0,0,0,0,0,0,0,0,0,0,0,0,0,2.3275,2.3237,2.3339,2.332,2.3318,2.3374,2.3374,2.3375,2.3327,2.3324,2.3321,2.3319,2.3359,2.3363,2.3367,2.3445,0,0,2.3379,2.3381,0,0,0,0,0,0,0,0,2.3273,2.3279,2.3322,2.3321,2.332,2.3343,2.3352,2.3399,2.3327,2.3324,2.3321,2.3318,2.3357,2.3361,2.3374,2.3447,2.3448,2.338,2.3382,2.3384,2.3385,0,0,0,0,0,0,0,2.327,2.3278,2.3353,2.3323,2.3321,2.331,2.3313,2.3361,2.3355,2.3324,2.332,2.3325,2.3356,2.337,2.3374,2.3449,2.338,2.3383,2.3386,2.3387,2.3586,2.3589,0,0,0,0,0,0,2.3269,2.3276,2.3352,2.3354,2.3289,2.3314,2.3318,2.3338,2.3354,2.3354,2.3327,2.3322,2.3364,2.337,2.3376,2.3467,2.3384,2.3388,2.339,2.3583,2.3587,2.359,0,0,0,0,0,0,2.3267,2.3277,2.3351,2.3314,2.3322,2.3319,2.3342,2.334,2.3354,2.3357,2.3356,2.3342,2.3363,2.337,2.3427,2.3468,2.339,2.3393,2.358,2.3584,2.3588,2.3651,0,0,0,0,0,0,2.3264,2.3276,2.3305,2.3315,2.3325,2.3401,2.3345,2.3343,2.336,2.3355,2.337,2.3371,2.3361,2.3421,2.3431,2.3472,2.3396,2.3576,2.3582,2.3587,2.3645,2.3656,2.3666,0,0,0,0,0,2.3261,2.3322,2.3307,2.3316,2.336,2.3403,2.3409,2.3395,2.3364,2.3393,2.3395,2.337,2.3462,2.3428,2.3438,2.3481,2.3574,2.358,2.3586,2.364,2.3654,2.3666,0,0,0,0,0,0,2.3319,2.3323,2.3306,2.3372,2.3388,2.3395,2.3431,2.3411,2.3437,2.343,2.3414,2.3418,2.3479,2.3486,2.3448,2.3556,2.3513,2.3521,2.355,2.3563,2.3574,2.3571,2.34,0,0,0,0,0,2.3339,2.3373,2.3375,2.3433,2.3442,2.3435,2.3454,2.3441,2.3457,2.3464,2.347,2.3487,2.352,2.3542,2.3572,2.3645,2.3648,2.368,2.369,2.3699,2.3707,2.3746,2.376,2.3611,2.3611,2.3611,0,0,2.3382,2.3389,2.3411,2.3445,2.3456,2.3491,2.3441,2.3481,2.3508,2.3471,2.3524,2.3529,2.3548,2.3613,2.3642,2.3621,2.3749,2.3707,2.3714,2.3718,2.3754,2.3768,2.3781,2.3615,2.3614,2.3614,0,0,2.3478,2.3487,2.3535,2.3546,2.3562,2.3557,2.3569,2.3579,2.358,2.3633,2.3606,2.3638,2.3694,2.3708,2.3723,2.3823,2.3801,2.3833,2.389,2.3928,2.3939,2.395,2.3985,2.3998,2.3841,2.3841,2.3841,0,2.353,2.3582,2.3564,2.3605,2.3621,2.3587,2.3637,2.3649,2.3674,2.3686,2.3661,2.373,2.3741,2.3808,2.3832,2.3846,2.3859,2.3832,2.3939,2.3949,2.3959,2.3992,2.4006,2.3845,2.3845,2.3844,2.3844,0,2.3644,2.368,2.3718,2.3741,2.3761,2.3807,2.3797,2.382,2.3806,2.3804,2.3858,2.3869,2.39,2.3915,2.3903,2.3982,2.3968,2.3941,2.3897,2.3977,2.4008,2.4021,2.3851,2.3849,2.3848,2.3847,0,0,2.3779,2.379,2.3805,2.3814,2.3828,2.3857,2.3901,2.3929,2.3949,2.3968,2.4005,2.4052,2.4027,2.4044,2.4033,2.4066,2.4144,2.4035,2.4036,2.4055,2.4232,2.4252,2.4267,2.413,2.4132,2.4134,2.423,0,2.3875,2.3949,2.3934,2.4007,2.404,2.4008,2.4046,2.4059,2.4058,2.4087,2.4087,2.4121,2.4085,2.4095,2.4126,2.4128,2.418,2.4121,2.4165,2.4167,2.4162,2.4283,2.4305,2.4395,2.4242,2.4244,2.4246,0,2.3997,2.4017,2.4094,2.4101,2.4114,2.4149,2.4173,2.4201,2.4216,2.4213,2.423,2.4213,2.4257,2.4212,2.4274,2.4234,2.4251,2.4255,2.4258,2.4262,2.4212,2.4291,2.4424,2.4437,2.4265,2.4264,2.4262,0,2.4087,2.4134,2.4186,2.4195,2.4205,2.423,2.4236,2.4248,2.4266,2.4288,2.4299,2.4327,2.4342,2.4365,2.4355,2.4323,2.4419,2.4373,2.4419,2.4419,2.4441,2.444,2.4579,2.4452,2.4452,2.4451,2.4451,0,2.4195,2.4243,2.4226,2.4258,2.4311,2.4293,2.4346,2.4348,2.4358,2.4391,2.4365,2.4396,2.4381,2.4412,2.4405,2.4457,2.4464,2.4464,2.4462,2.4466,2.4467,2.4478,2.4472,2.4455,2.4454,2.4454,2.4453,0,2.4306,2.4296,2.435,2.4354,2.4356,2.4395,2.44,2.443,2.4426,2.4467,2.4476,2.4471,2.4506,2.4498,2.4537,2.4532,2.4598,2.4587,2.4592,2.459,2.4636,2.4632,2.4787,2.4807,2.4667,2.4668,2.467,0,2.4376,2.4411,2.4419,2.4438,2.4445,2.4476,2.4493,2.4477,2.4496,2.4515,2.4543,2.4574,2.4599,2.4656,2.4657,2.4686,2.4677,2.4729,2.4681,2.4685,2.4678,2.4676,2.4679,2.4739,2.474,2.4742,2.4743,0,2.4501,2.4494,2.4519,2.4542,2.4563,2.4582,2.4598,2.4615,2.46,2.4624,2.4657,2.4676,2.4714,2.4746,2.4773,2.478,2.476,2.4758,2.477,2.4775,2.4776,2.4776,2.4618,2.4754,2.4753,2.4752,2.4752,2.4751,2.4593,2.4623,2.4632,2.4661,2.4671,2.4686,2.4714,2.4713,2.474,2.4769,2.4758,2.4797,2.481,2.4843,2.4854,2.4885,2.4866,2.4883,2.4888,2.4893,2.4898,2.4771,2.489,2.489,2.4889,2.4889,2.4889,0,2.4716,2.472,2.4747,2.4769,2.4792,2.4768,2.4784,2.4805,2.4839,2.4852,2.4876,2.4915,2.4946,2.4949,2.4978,2.5002,2.4994,2.5011,2.5009,2.5011,2.4914,2.49,2.5017,2.5017,2.5017,2.5017,2.5017,2.5017,2.4783,2.4832,2.4826,2.488,2.4884,2.492,2.4931,2.4945,2.4956,2.4999,2.5024,2.5025,2.5034,2.5064,2.5091,2.5091,2.5104,2.5124,2.5121,2.5031,2.5018,2.5006,2.4993,2.5127,2.5127,2.5216,2.5216,2.5217]}]]